[[{"header":{"parameterUnit":"m.s-1","parameterCategory":1,"la1":30.2991,"la2":30.254,"lo1":-89.0895,"lo2":-89.0444,"dy":0.0017,"dx":0.0017,"nx":28,"ny":28,"refTime":"2023-09-08T09:00:00:Z","depth":0,"parameterNumber":2,"parameterNumberName":"U-component_of_WINDS"},"data":[0,0,0,0,0,0,0,0,0,0,0,0,0,0,0,0,0,0,0,0,0,0,0,0,0,0,0,0,0,0,0,0,0,0,0,0,0,0,0,0,0,0,0,0,0,0,0,0,0,0,0,0,0,0,0,0,0,0,-0.3773,-0.3773,0,-0.3696,-0.3696,-0.3695,-0.3604,-0.3603,-0.3602,-0.36,-0.352,-0.3519,-0.3518,0,0,0,0,0,0,0,0,0,0,0,0,0,-0.3841,-0.384,-0.3774,-0.3773,-0.3772,-0.3697,-0.3696,-0.3694,-0.3605,-0.3603,-0.3601,-0.36,-0.352,-0.3519,-0.3518,0,0,0,0,0,0,0,0,0,0,0,0,0,-0.3793,-0.384,-0.3774,-0.3718,-0.3712,-0.3697,-0.3695,-0.3694,-0.3605,-0.3603,-0.3601,-0.3599,-0.352,-0.3519,-0.3518,-0.3551,0,0,-0.3514,-0.3513,0,0,0,0,0,0,0,0,-0.3795,-0.379,-0.3727,-0.3722,-0.3715,-0.3658,-0.369,-0.3646,-0.3605,-0.3646,-0.36,-0.3598,-0.3567,-0.3562,-0.3552,-0.3547,-0.3544,-0.3514,-0.3513,-0.3513,-0.3512,0,0,0,0,0,0,0,-0.3799,-0.3793,-0.3743,-0.3726,-0.3719,-0.3696,-0.3687,-0.3681,-0.3619,-0.3642,-0.3635,-0.3627,-0.3564,-0.3554,-0.355,-0.3543,-0.3514,-0.3513,-0.3512,-0.3511,-0.3561,-0.3563,0,0,0,0,0,0,-0.3811,-0.3796,-0.3745,-0.3741,-0.3751,-0.3696,-0.3686,-0.3678,-0.3619,-0.3608,-0.3629,-0.3623,-0.3557,-0.3551,-0.3546,-0.3581,-0.3513,-0.3511,-0.3511,-0.3559,-0.3561,-0.3563,0,0,0,0,0,0,-0.3813,-0.3807,-0.3748,-0.3767,-0.3757,-0.3697,-0.3689,-0.3678,-0.3668,-0.3609,-0.3597,-0.363,-0.3555,-0.3548,-0.3551,-0.3577,-0.3511,-0.351,-0.3556,-0.3559,-0.3562,-0.3652,0,0,0,0,0,0,-0.3815,-0.3808,-0.3821,-0.3768,-0.3757,-0.3755,-0.3691,-0.3678,-0.3666,-0.3658,-0.3607,-0.3597,-0.3553,-0.3553,-0.3549,-0.3574,-0.3509,-0.3554,-0.3558,-0.3561,-0.3646,-0.3658,-0.3668,0,0,0,0,0,-0.3818,-0.3849,-0.3822,-0.3816,-0.3771,-0.3757,-0.375,-0.37,-0.3668,-0.368,-0.3642,-0.3598,-0.3575,-0.3554,-0.3549,-0.3574,-0.3552,-0.3557,-0.3561,-0.3642,-0.3656,-0.3667,0,0,0,0,0,0,-0.3907,-0.3841,-0.381,-0.3825,-0.3798,-0.3742,-0.3755,-0.3716,-0.3696,-0.3689,-0.3626,-0.3616,-0.3626,-0.36,-0.3578,-0.3603,-0.3557,-0.3561,-0.362,-0.3632,-0.3643,-0.3649,-0.3507,0,0,0,0,0,-0.3928,-0.3922,-0.3865,-0.3884,-0.3871,-0.3816,-0.3808,-0.3771,-0.3739,-0.3727,-0.3689,-0.3659,-0.3645,-0.3637,-0.3621,-0.3642,-0.3629,-0.3656,-0.3667,-0.3676,-0.368,-0.3689,-0.3701,-0.3579,-0.3579,-0.3579,0,0,-0.3972,-0.3936,-0.3936,-0.3901,-0.3875,-0.387,-0.3806,-0.3804,-0.3799,-0.3726,-0.3726,-0.3698,-0.366,-0.3672,-0.3676,-0.3651,-0.3711,-0.3682,-0.369,-0.3689,-0.3695,-0.3707,-0.3717,-0.3582,-0.3582,-0.3581,0,0,-0.405,-0.4022,-0.4035,-0.401,-0.3971,-0.3934,-0.3937,-0.3887,-0.3865,-0.3865,-0.381,-0.3803,-0.378,-0.3755,-0.374,-0.3808,-0.3767,-0.3805,-0.386,-0.387,-0.3879,-0.3888,-0.3912,-0.3922,-0.3809,-0.3809,-0.3809,0,-0.411,-0.4101,-0.4046,-0.4047,-0.4033,-0.3966,-0.3978,-0.3957,-0.3915,-0.3907,-0.3879,-0.3849,-0.3819,-0.3825,-0.3841,-0.3831,-0.3832,-0.3811,-0.3883,-0.389,-0.3897,-0.392,-0.3929,-0.3814,-0.3813,-0.3813,-0.3812,0,-0.4176,-0.4171,-0.4185,-0.4147,-0.4135,-0.4141,-0.4087,-0.408,-0.4044,-0.401,-0.401,-0.3972,-0.3947,-0.3945,-0.3909,-0.3945,-0.3931,-0.3894,-0.3847,-0.3915,-0.3935,-0.3943,-0.3821,-0.3819,-0.3818,-0.3817,0,0,-0.4309,-0.424,-0.4247,-0.4228,-0.4181,-0.4175,-0.4178,-0.4154,-0.415,-0.4123,-0.4124,-0.4105,-0.4071,-0.4054,-0.4015,-0.4023,-0.408,-0.3985,-0.3983,-0.4005,-0.4117,-0.4146,-0.4157,-0.4052,-0.4053,-0.4055,-0.4121,0,-0.4379,-0.4382,-0.4332,-0.4348,-0.4342,-0.4278,-0.4281,-0.4251,-0.4219,-0.4209,-0.4172,-0.4161,-0.4116,-0.4105,-0.411,-0.4072,-0.4102,-0.4067,-0.4052,-0.4052,-0.4065,-0.4168,-0.4198,-0.4262,-0.4128,-0.4129,-0.413,0,-0.4462,-0.444,-0.4456,-0.4407,-0.4402,-0.4406,-0.438,-0.437,-0.4336,-0.4311,-0.4292,-0.4248,-0.4247,-0.4201,-0.4199,-0.4176,-0.4166,-0.4147,-0.4148,-0.4145,-0.4096,-0.4169,-0.4282,-0.4292,-0.4142,-0.4141,-0.4141,0,-0.4558,-0.4532,-0.4538,-0.4525,-0.4468,-0.4472,-0.4448,-0.4411,-0.44,-0.4376,-0.4368,-0.4345,-0.4332,-0.4315,-0.4265,-0.4237,-0.4268,-0.4219,-0.4248,-0.425,-0.4259,-0.4259,-0.4373,-0.4252,-0.4252,-0.4251,-0.4251,0,-0.4642,-0.4654,-0.4581,-0.4585,-0.4596,-0.4538,-0.4551,-0.4521,-0.4489,-0.4485,-0.4428,-0.4426,-0.436,-0.435,-0.4311,-0.4315,-0.4309,-0.4289,-0.4279,-0.4295,-0.4298,-0.4289,-0.4283,-0.4254,-0.4253,-0.4253,-0.4252,0,-0.4752,-0.4704,-0.4706,-0.4652,-0.4639,-0.465,-0.4603,-0.4604,-0.4568,-0.4564,-0.4559,-0.4503,-0.4488,-0.4436,-0.4409,-0.4382,-0.4399,-0.4378,-0.4411,-0.4405,-0.4437,-0.4435,-0.455,-0.4562,-0.4433,-0.4434,-0.4436,0,-0.481,-0.4818,-0.4764,-0.4758,-0.4737,-0.4728,-0.4716,-0.4659,-0.4649,-0.4609,-0.4615,-0.4596,-0.4578,-0.4557,-0.4513,-0.4491,-0.447,-0.4512,-0.4466,-0.4482,-0.4471,-0.4472,-0.4473,-0.4522,-0.4524,-0.4525,-0.4526,0,-0.4917,-0.4892,-0.4878,-0.4855,-0.4842,-0.4821,-0.4797,-0.4795,-0.4731,-0.4722,-0.4707,-0.4693,-0.4664,-0.4646,-0.4617,-0.4592,-0.4549,-0.4541,-0.4546,-0.4563,-0.4583,-0.4573,-0.4439,-0.4538,-0.4537,-0.4536,-0.4536,-0.4535,-0.5002,-0.5007,-0.497,-0.4956,-0.4931,-0.491,-0.4908,-0.4871,-0.4858,-0.4831,-0.4798,-0.4786,-0.475,-0.4707,-0.4685,-0.4675,-0.4651,-0.466,-0.4662,-0.4665,-0.4673,-0.4583,-0.4669,-0.4669,-0.4669,-0.4668,-0.4668,0,-0.5107,-0.5081,-0.5068,-0.5036,-0.5024,-0.4984,-0.4955,-0.4948,-0.4939,-0.4909,-0.4892,-0.4875,-0.4856,-0.4811,-0.4788,-0.4788,-0.4768,-0.4784,-0.4784,-0.4779,-0.4695,-0.4693,-0.4801,-0.4801,-0.4801,-0.4801,-0.4801,-0.4801,-0.5161,-0.5166,-0.5137,-0.5129,-0.5101,-0.509,-0.5077,-0.5057,-0.5033,-0.5016,-0.5001,-0.4971,-0.4934,-0.4908,-0.489,-0.4876,-0.4871,-0.4894,-0.4875,-0.4798,-0.4785,-0.4773,-0.4771,-0.4893,-0.4894,-0.496,-0.496,-0.4961]},{"header":{"parameterUnit":"m.s-1","parameterCategory":1,"la1":30.2991,"la2":30.254,"lo1":-89.0895,"lo2":-89.0444,"dy":0.0017,"dx":0.0017,"nx":28,"ny":28,"refTime":"2023-09-08T09:00:00:Z","depth":0,"parameterNumber":3,"parameterNumberName":"V-component_of_WINDS"},"data":[0,0,0,0,0,0,0,0,0,0,0,0,0,0,0,0,0,0,0,0,0,0,0,0,0,0,0,0,0,0,0,0,0,0,0,0,0,0,0,0,0,0,0,0,0,0,0,0,0,0,0,0,0,0,0,0,0,0,-0.577,-0.577,0,-0.5803,-0.5804,-0.5804,-0.5814,-0.5813,-0.5813,-0.5813,-0.5847,-0.5848,-0.5849,0,0,0,0,0,0,0,0,0,0,0,0,0,-0.5714,-0.5715,-0.577,-0.577,-0.577,-0.5803,-0.5804,-0.5804,-0.5814,-0.5813,-0.5813,-0.5813,-0.5847,-0.5848,-0.5849,0,0,0,0,0,0,0,0,0,0,0,0,0,-0.5742,-0.5715,-0.577,-0.5779,-0.578,-0.5803,-0.5804,-0.5804,-0.5814,-0.5813,-0.5813,-0.5813,-0.5846,-0.5848,-0.5849,-0.5865,0,0,-0.5854,-0.5855,0,0,0,0,0,0,0,0,-0.574,-0.5744,-0.5777,-0.5779,-0.578,-0.5804,-0.5797,-0.5825,-0.5814,-0.5801,-0.5813,-0.5813,-0.5833,-0.5836,-0.5843,-0.5867,-0.5868,-0.5855,-0.5856,-0.5856,-0.5857,0,0,0,0,0,0,0,-0.5738,-0.5743,-0.5783,-0.5778,-0.5779,-0.5782,-0.5786,-0.5802,-0.5818,-0.5802,-0.5803,-0.5807,-0.5834,-0.5841,-0.5843,-0.5869,-0.5854,-0.5856,-0.5857,-0.5858,-0.591,-0.591,0,0,0,0,0,0,-0.5735,-0.5741,-0.5782,-0.5784,-0.5759,-0.5783,-0.5787,-0.5797,-0.5818,-0.5821,-0.5807,-0.5807,-0.5838,-0.5842,-0.5845,-0.5866,-0.5856,-0.5858,-0.5859,-0.5909,-0.591,-0.591,0,0,0,0,0,0,-0.5733,-0.5738,-0.5781,-0.5763,-0.5768,-0.5784,-0.5795,-0.5797,-0.5805,-0.5822,-0.5825,-0.5812,-0.5838,-0.5842,-0.5861,-0.5867,-0.5858,-0.586,-0.5909,-0.5909,-0.591,-0.5908,0,0,0,0,0,0,-0.5732,-0.5738,-0.5744,-0.5763,-0.5769,-0.5796,-0.5795,-0.5798,-0.5808,-0.5808,-0.5827,-0.583,-0.5838,-0.5858,-0.5862,-0.5869,-0.5861,-0.5908,-0.5909,-0.591,-0.5907,-0.5908,-0.5909,0,0,0,0,0,-0.573,-0.5741,-0.5744,-0.5749,-0.5777,-0.5796,-0.58,-0.581,-0.5808,-0.5815,-0.5826,-0.5829,-0.5866,-0.586,-0.5864,-0.5872,-0.5908,-0.5909,-0.591,-0.5907,-0.5908,-0.5909,0,0,0,0,0,0,-0.5721,-0.5744,-0.5747,-0.5765,-0.5778,-0.5797,-0.5806,-0.581,-0.5824,-0.5824,-0.5836,-0.584,-0.5858,-0.5867,-0.586,-0.589,-0.5887,-0.5889,-0.5883,-0.5884,-0.5885,-0.5883,-0.5863,0,0,0,0,0,-0.5722,-0.5735,-0.5754,-0.5768,-0.5775,-0.5789,-0.5798,-0.5804,-0.5819,-0.5825,-0.5837,-0.5851,-0.5866,-0.5876,-0.589,-0.5909,-0.5914,-0.5916,-0.5917,-0.5918,-0.5919,-0.5932,-0.5934,-0.5913,-0.5913,-0.5913,0,0,-0.5722,-0.5736,-0.5744,-0.5767,-0.5778,-0.5793,-0.5794,-0.5808,-0.5819,-0.5827,-0.5845,-0.5855,-0.5872,-0.589,-0.5899,-0.5898,-0.5926,-0.5919,-0.5919,-0.5921,-0.5933,-0.5935,-0.5937,-0.5914,-0.5914,-0.5914,0,0,-0.5731,-0.5742,-0.5756,-0.5768,-0.5786,-0.5795,-0.5799,-0.5818,-0.5825,-0.5843,-0.585,-0.5863,-0.5888,-0.59,-0.591,-0.5925,-0.5929,-0.5929,-0.5934,-0.5946,-0.5948,-0.5949,-0.5956,-0.5958,-0.5931,-0.5931,-0.5931,0,-0.5729,-0.5751,-0.5762,-0.5777,-0.5788,-0.5796,-0.5811,-0.5822,-0.5843,-0.585,-0.5849,-0.5882,-0.5893,-0.5916,-0.592,-0.5927,-0.5932,-0.5928,-0.5947,-0.5948,-0.595,-0.5957,-0.5959,-0.5931,-0.5931,-0.5931,-0.5931,0,-0.5749,-0.5764,-0.5773,-0.5795,-0.5806,-0.5821,-0.5835,-0.5845,-0.5851,-0.5862,-0.5882,-0.5896,-0.5914,-0.592,-0.5926,-0.5944,-0.5944,-0.5944,-0.5942,-0.5952,-0.5958,-0.5961,-0.5931,-0.5931,-0.5931,-0.5931,0,0,-0.5752,-0.5781,-0.5784,-0.5795,-0.5817,-0.5829,-0.5844,-0.5863,-0.5873,-0.5887,-0.5902,-0.5924,-0.5925,-0.5936,-0.5943,-0.5953,-0.5967,-0.5953,-0.5954,-0.5956,-0.599,-0.599,-0.5993,-0.597,-0.597,-0.597,-0.5989,0,-0.5764,-0.5793,-0.5804,-0.5828,-0.5843,-0.5852,-0.5866,-0.5881,-0.5891,-0.5906,-0.5917,-0.5933,-0.5933,-0.594,-0.5951,-0.5963,-0.5974,-0.5962,-0.5984,-0.5984,-0.598,-0.5996,-0.5996,-0.6013,-0.5992,-0.5992,-0.5993,0,-0.5781,-0.5798,-0.5824,-0.5845,-0.5852,-0.5864,-0.5884,-0.5897,-0.5915,-0.5922,-0.5935,-0.5942,-0.596,-0.5956,-0.5981,-0.5973,-0.5982,-0.599,-0.5991,-0.5994,-0.599,-0.6001,-0.6019,-0.6022,-0.5997,-0.5996,-0.5996,0,-0.5783,-0.5811,-0.5831,-0.584,-0.5865,-0.5874,-0.5885,-0.5902,-0.5913,-0.593,-0.5938,-0.5956,-0.5967,-0.5981,-0.5993,-0.5989,-0.6018,-0.6015,-0.6025,-0.6025,-0.6031,-0.6031,-0.6052,-0.6036,-0.6035,-0.6035,-0.6035,0,-0.5796,-0.5811,-0.5832,-0.5844,-0.5863,-0.5876,-0.5894,-0.5905,-0.5921,-0.5936,-0.5945,-0.5958,-0.5973,-0.5989,-0.5999,-0.602,-0.6024,-0.603,-0.6033,-0.603,-0.603,-0.6037,-0.6037,-0.6036,-0.6036,-0.6036,-0.6036,0,-0.58,-0.5815,-0.5837,-0.586,-0.5866,-0.5879,-0.5898,-0.5911,-0.5922,-0.5941,-0.5946,-0.5964,-0.5984,-0.5998,-0.6022,-0.6029,-0.6051,-0.6053,-0.6046,-0.6047,-0.6057,-0.6057,-0.6085,-0.609,-0.6069,-0.6069,-0.607,0,-0.5808,-0.582,-0.5845,-0.5856,-0.5868,-0.5885,-0.5897,-0.5911,-0.5924,-0.5946,-0.5956,-0.5977,-0.5994,-0.6025,-0.604,-0.6059,-0.6063,-0.6071,-0.6065,-0.6063,-0.6065,-0.6064,-0.6066,-0.6072,-0.6072,-0.6072,-0.6072,0,-0.582,-0.5827,-0.5845,-0.5866,-0.588,-0.5897,-0.5914,-0.5922,-0.594,-0.5953,-0.5974,-0.5988,-0.6014,-0.6035,-0.6056,-0.6067,-0.6073,-0.6074,-0.6078,-0.6076,-0.6072,-0.6076,-0.6049,-0.6074,-0.6073,-0.6073,-0.6073,-0.6073,-0.5827,-0.5839,-0.586,-0.588,-0.5894,-0.5911,-0.5924,-0.5938,-0.5956,-0.5979,-0.5986,-0.6008,-0.6028,-0.6057,-0.6069,-0.6087,-0.6086,-0.6091,-0.6093,-0.6094,-0.6095,-0.6068,-0.609,-0.609,-0.609,-0.609,-0.609,0,-0.5841,-0.5855,-0.5873,-0.5898,-0.5914,-0.5919,-0.5938,-0.5952,-0.5971,-0.5989,-0.6006,-0.6031,-0.6052,-0.6069,-0.6091,-0.6102,-0.6105,-0.6107,-0.6107,-0.611,-0.6093,-0.6089,-0.6104,-0.6104,-0.6104,-0.6104,-0.6104,-0.6104,-0.585,-0.5872,-0.5882,-0.5912,-0.5926,-0.5949,-0.596,-0.5975,-0.599,-0.6018,-0.6035,-0.6047,-0.6065,-0.6089,-0.6108,-0.6113,-0.6121,-0.6123,-0.6128,-0.6112,-0.6111,-0.6109,-0.6105,-0.6124,-0.6124,-0.6144,-0.6144,-0.6144]}]]